Location: Katowice
(50.2611°N, 19.0242°E)
Time: 16:33:05
(UTC+02:00)

Explorer 7 - Pass Details

Date: 25 August 2019
Orbit: 485 x 680 km, 50.3° (Epoch: 18 September)

Event Time Altitude Azimuth Distance (km) Brightness Sun altitude
Rises 08:23:22 0° 198° (SSW) 3,018 10.5 23.8°
Reaches altitude 10° 08:26:23 10° 180° (S) 2,096 10.0 24.2°
Maximum altitude 08:29:37 18° 138° (SE) 1,617 10.3 24.7°
Drops below altitude 10° 08:32:47 10° 96° (E) 2,054 11.6 25.2°
Sets 08:35:42 0° 77° (ENE) 2,935 11.5 25.7°
